Location: Newark
(46.1292°N, 1.0086°W)
Time: 09:10:03
(UTC+00:00)

Vanguard 3 - Pass Details

Date: 21 November 2019
Orbit: 508 x 3263 km, 33.3° (Epoch: 06 December)

Event Time Altitude Azimuth Distance (km) Brightness Sun altitude
Rises 18:43:12 0° 276° (W) 7,132 13.3 -23.3°
Reaches altitude 10° 18:49:09 10° 268° (W) 5,888 12.6 -24.4°
Maximum altitude 19:02:38 30° 217° (SW) 3,609 10.7 -26.7°
Drops below altitude 10° 19:12:00 10° 162° (SSE) 4,021 10.5 -28.3°
Enters shadow 19:13:50 - 156° (SSE) 4,354 10.6 -28.7°
Sets 19:15:11 0° 151° (SSE) 4,638 - -28.9°
